Content
SEND FEEDBACK

Daily
Averages
Monthly
Summary
United States of America

HALIFAX, VIRGINIA


Home > North America > United States > Virginia
Elevation: 44 feet     Latitude: 36 47N     Longitude: 078 51W

WEATHER
 
SELECT A DAY
Number of Records: 197,845;   Date Range: 1/1/95 - 8/12/14
 
SHARE

PRINT THIS DATA

[ ← Previous Day ]
WEATHER ALMANAC - JANUARY 23, 2013
[ Next Day → ]
[ °C ]   °F
Weather ElementAverageHighLow
Temperature29.7 °F37.9 °F (12:53 pm)21.9 °F (6:53 am)
Dewpoint6.1 °F18 °F (11:53 pm)-2.9 °F (9:53 am)
Humidity38.6 %64 % (11:53 pm)22 % (10:53 am)
Barometer30.23 in30.34 in (6:53 am)30.04 in (11:53 pm)
Wind Speed7 mph19.6 mph (1:53 pm)
Wind Gust25.3 mph (1:53 pm)
Weather ElementAverage
Visibility10 mi
Wind DirectionSSW (204.1 °)

Weather ElementTotal
Precipitation---
Heating Degree Days35.1 (Base 65)
Averaged from 22 records on January 23, 2013
WEATHER CONDITIONS BREAKOUT
WIND DIRECTION BREAKOUT
WEATHER BY HOUR - JANUARY 23, 2013
[ °C ]   °F
Local TimeTemperatureDewpointHumidityBarometerVisibilityWind DirectionWind SpeedGust SpeedPrecipitationEventsConditions
1:53 AM25.0 °F-0.9 °F33 %30.27 in10.0 miNNW (340°)12.7 mph18.4 mphOvercast
2:53 AM24.1 °F-0.9 °F34 %30.29 in10.0 miNorth (350°)10.4 mphClear
3:53 AM23.0 °F-0.9 °F35 %30.29 in10.0 miNNW (340°)9.2 mphClear
4:53 AM23.0 °F-0.9 °F35 %30.30 in10.0 miNNW (340°)12.7 mph17.3 mphClear
5:53 AM23.0 °F-0.9 °F35 %30.31 in10.0 miNNW (340°)9.2 mphClear
6:53 AM21.9 °F0.0 °F38 %30.34 in10.0 miNNW (330°)8.1 mphClear
7:53 AM21.9 °F1.0 °F40 %30.34 in10.0 miCalmClear
8:53 AM26.1 °F1.0 °F34 %30.34 in10.0 miNNW (330°)5.8 mphClear
9:53 AM30.0 °F-2.9 °F24 %30.34 in10.0 miNW (310°)11.5 mphClear
10:53 AM33.1 °F-2.0 °F22 %30.33 in10.0 miWNW (290°)10.4 mph18.4 mphClear
11:53 AM36.0 °F1.9 °F24 %30.30 in10.0 miWest (260°)10.4 mph17.3 mphClear
12:53 PM37.9 °F6.1 °F27 %30.25 in10.0 miWest (260°)9.2 mphMostly Cloudy
1:53 PM37.9 °F9.0 °F30 %30.21 in10.0 miWSW (250°)19.6 mph25.3 mphOvercast
2:53 PM37.9 °F10.0 °F32 %30.20 in10.0 miWest (260°)10.4 mph21.9 mphOvercast
3:53 PM37.9 °F10.9 °F33 %30.19 in10.0 miWSW (250°)6.9 mphOvercast
4:53 PM37.9 °F12.9 °F36 %30.18 in10.0 miWSW (240°)8.1 mphOvercast
5:53 PM35.1 °F12.9 °F40 %30.17 in10.0 miCalmOvercast
6:53 PM30.0 °F12.9 °F49 %30.16 in10.0 miCalmClear
8:53 PM28.0 °F15.1 °F58 %30.12 in10.0 miCalmClear
9:53 PM26.1 °F15.1 °F63 %30.09 in10.0 miCalmClear
10:53 PM28.0 °F17.1 °F63 %30.06 in10.0 miCalmClear
11:53 PM28.9 °F18.0 °F64 %30.04 in10.0 miCalmClear
Hourly data recorded from KDAN, located miles away from Halifax, Virginia







STORIES FROM OUR PARTNERS